Buoy 62726

sailwx.info

Track history (hours):
 
Tides and Currents Weather Stations Pressure Air Temp Water Temp Dewpoint Dewpoint Depression Visibility Wind Speed Wind Dir Waves Ship Positions

Drifting buoy 62726

Last reported at 2015-Jul-11 18:00 UTC. Time now 2015-Aug-01 16:15 UTC.
Position N 37°58' W 019°39'.
Warning: this ship's position is 20 days out of date.

Water temperature 25.1 ° C

Date/timePositionNaut miles runAvg speedWind from/ knotsBaromVisibWave heightAir tempDewpointWater temp
2015-Jul-11 18:00N 37°58' W 019°39'0 0.2 25.1
2015-Jul-11 17:00N 37°58' W 019°39'0 0.0 25.1
2015-Jul-11 16:00N 37°58' W 019°39'0 0.4 25.4
2015-Jul-11 15:00N 37°58' W 019°39'0 0.3 24.5
2015-Jul-11 14:00N 37°58' W 019°40'1 0.6 23.6
2015-Jul-11 13:00N 37°59' W 019°40'0 0.0 23.4
2015-Jul-11 12:00N 37°59' W 019°40'1 0.8 22.7
2015-Jul-11 11:00N 37°59' W 019°41'1 0.6 22.2
2015-Jul-11 09:00N 37°58' W 019°42'0 0.0 21.8
2015-Jul-11 08:00N 37°58' W 019°42'1 0.8 21.7
2015-Jul-11 07:00N 37°57' W 019°42'0 0.2 21.7
2015-Jul-11 06:00N 37°57' W 019°42'0 0.1 21.7
2015-Jul-11 05:00N 37°57' W 019°42'1 0.2 21.7
2015-Jul-10 23:00N 37°56' W 019°41'0 0.4 21.8
2015-Jul-10 22:00N 37°55' W 019°40'0 0.4 21.8
2015-Jul-10 21:00N 37°56' W 019°40'4 0.7 21.9
2015-Jul-10 15:00N 37°59' W 019°44'0 0.0 22.1
2015-Jul-10 14:00N 37°59' W 019°44'5 0.9 22.4
2015-Jul-10 09:00N 37°56' W 019°48'0 0.4 21.6
2015-Jul-10 08:00N 37°56' W 019°49'1 0.3 21.6
2015-Jul-10 06:00N 37°55' W 019°48'2 0.3 21.6
2015-Jul-10 00:00N 37°56' W 019°51'4 0.9 21.7
2015-Jul-09 19:00N 37°55' W 019°56'2 0.6 21.9
2015-Jul-09 16:00N 37°55' W 019°59'7 1.2 22.0
2015-Jul-09 10:00N 37°48' W 019°58'1 0.1 21.5
2015-Jul-08 23:00N 37°47' W 019°59'9 0.9 21.4
2015-Jul-08 13:00N 37°38' W 019°55'0 0.2 21.5
2015-Jul-08 12:00N 37°38' W 019°55'3 0.6 21.4
2015-Jul-08 08:00N 37°39' W 019°52'0 0.2 21.2
2015-Jul-08 06:00N 37°39' W 019°52'1 0.2 21.2
2015-Jul-08 03:00N 37°39' W 019°53'4 0.8 21.1
2015-Jul-07 22:00N 37°35' W 019°51'4 0.9 21.3
2015-Jul-07 18:00N 37°35' W 019°46'6 0.7 21.5
2015-Jul-07 10:00N 37°38' W 019°40'1 0.8 21.3
2015-Jul-07 09:00N 37°37' W 019°41'0 0.4 21.4
2015-Jul-07 08:00N 37°37' W 019°41'1 0.4 21.4
2015-Jul-07 06:00N 37°37' W 019°41'1 0.3 21.6
2015-Jul-07 02:00N 37°36' W 019°41'2 0.7 21.8
2015-Jul-06 23:00N 37°35' W 019°39'1 0.5 21.8
2015-Jul-06 21:00N 37°35' W 019°38'3 0.6 21.9
2015-Jul-06 17:00N 37°38' W 019°39'2 0.6 22.1
2015-Jul-06 14:00N 37°38' W 019°41'4 0.4 21.9
2015-Jul-06 05:00N 37°36' W 019°45'2 0.4 21.2
2015-Jul-05 22:00N 37°36' W 019°41'1 0.8 21.3
2015-Jul-05 21:00N 37°36' W 019°41'0 0.3 21.5
2015-Jul-05 20:00N 37°36' W 019°42'1 0.7 21.6
2015-Jul-05 18:00N 37°38' W 019°42'0 0.0 21.9
2015-Jul-05 17:00N 37°38' W 019°42'1 0.7 21.7
2015-Jul-05 16:00N 37°38' W 019°43'3 0.3 22.0
2015-Jul-05 07:00N 37°35' W 019°44'1 0.8 20.8
2015-Jul-05 06:00N 37°35' W 019°43'1 0.3 20.9
2015-Jul-05 02:00N 37°37' W 019°43'1 0.1 21.1
2015-Jul-04 17:00N 37°37' W 019°42'0 0.4 21.5
2015-Jul-04 16:00N 37°37' W 019°42'3 0.7 21.5
2015-Jul-04 11:00N 37°36' W 019°38'1 0.2 20.8
2015-Jul-04 08:00N 37°36' W 019°37'3 0.4 20.5
2015-Jul-03 23:00N 37°38' W 019°34'1 0.6 20.6
2015-Jul-03 21:00N 37°39' W 019°35'0 0.0 20.8
2015-Jul-03 20:00N 37°39' W 019°35'0 0.1 20.9
2015-Jul-03 18:00N 37°39' W 019°34'0 0.2 20.9
2015-Jul-03 16:00N 37°39' W 019°35'2 0.8 20.8
2015-Jul-03 14:00N 37°38' W 019°33'0 0.0 20.7
2015-Jul-03 13:00N 37°38' W 019°33'2 0.4 20.5
2015-Jul-03 09:00N 37°39' W 019°33'0 0.0 20.3
2015-Jul-03 08:00N 37°39' W 019°33'1 0.4 20.3
2015-Jul-03 06:00N 37°40' W 019°34'4 0.5 20.3
2015-Jul-02 23:00N 37°39' W 019°39'0 0.0 20.6
2015-Jul-02 22:00N 37°39' W 019°39'1 0.5 20.6
2015-Jul-02 19:00N 37°38' W 019°41'4 1.4 20.7
2015-Jul-02 16:00N 37°36' W 019°45'3 0.7 20.8
2015-Jul-02 11:00N 37°33' W 019°46'3 0.4 20.5
2015-Jul-02 05:00N 37°31' W 019°45'2 0.2 20.3
2015-Jul-01 21:00N 37°29' W 019°44'   20.5
Track history (hours):
 
Tides and Currents Weather Stations Pressure Air Temp Water Temp Dewpoint Dewpoint Depression Visibility Wind Speed Wind Dir Waves Ship Positions

Drifting buoy 62726

Last reported at 2015-Jul-11 18:00 UTC. Time now 2015-Aug-01 16:15 UTC.
Position N 37°58' W 019°39'.
Warning: this ship's position is 20 days out of date.

Water temperature 25.1 ° C

Date/timePositionNaut miles runAvg speedWind from/ knotsBaromVisibWave heightAir tempDewpointWater temp
2015-Jul-11 18:00N 37°58' W 019°39'0 0.2 25.1
2015-Jul-11 17:00N 37°58' W 019°39'0 0.0 25.1
2015-Jul-11 16:00N 37°58' W 019°39'0 0.4 25.4
2015-Jul-11 15:00N 37°58' W 019°39'0 0.3 24.5
2015-Jul-11 14:00N 37°58' W 019°40'1 0.6 23.6
2015-Jul-11 13:00N 37°59' W 019°40'0 0.0 23.4
2015-Jul-11 12:00N 37°59' W 019°40'1 0.8 22.7
2015-Jul-11 11:00N 37°59' W 019°41'1 0.6 22.2
2015-Jul-11 09:00N 37°58' W 019°42'0 0.0 21.8
2015-Jul-11 08:00N 37°58' W 019°42'1 0.8 21.7
2015-Jul-11 07:00N 37°57' W 019°42'0 0.2 21.7
2015-Jul-11 06:00N 37°57' W 019°42'0 0.1 21.7
2015-Jul-11 05:00N 37°57' W 019°42'1 0.2 21.7
2015-Jul-10 23:00N 37°56' W 019°41'0 0.4 21.8
2015-Jul-10 22:00N 37°55' W 019°40'0 0.4 21.8
2015-Jul-10 21:00N 37°56' W 019°40'4 0.7 21.9
2015-Jul-10 15:00N 37°59' W 019°44'0 0.0 22.1
2015-Jul-10 14:00N 37°59' W 019°44'5 0.9 22.4
2015-Jul-10 09:00N 37°56' W 019°48'0 0.4 21.6
2015-Jul-10 08:00N 37°56' W 019°49'1 0.3 21.6
2015-Jul-10 06:00N 37°55' W 019°48'2 0.3 21.6
2015-Jul-10 00:00N 37°56' W 019°51'4 0.9 21.7
2015-Jul-09 19:00N 37°55' W 019°56'2 0.6 21.9
2015-Jul-09 16:00N 37°55' W 019°59'7 1.2 22.0
2015-Jul-09 10:00N 37°48' W 019°58'1 0.1 21.5
2015-Jul-08 23:00N 37°47' W 019°59'9 0.9 21.4
2015-Jul-08 13:00N 37°38' W 019°55'0 0.2 21.5
2015-Jul-08 12:00N 37°38' W 019°55'3 0.6 21.4
2015-Jul-08 08:00N 37°39' W 019°52'0 0.2 21.2
2015-Jul-08 06:00N 37°39' W 019°52'1 0.2 21.2
2015-Jul-08 03:00N 37°39' W 019°53'4 0.8 21.1
2015-Jul-07 22:00N 37°35' W 019°51'4 0.9 21.3
2015-Jul-07 18:00N 37°35' W 019°46'6 0.7 21.5
2015-Jul-07 10:00N 37°38' W 019°40'1 0.8 21.3
2015-Jul-07 09:00N 37°37' W 019°41'0 0.4 21.4
2015-Jul-07 08:00N 37°37' W 019°41'1 0.4 21.4
2015-Jul-07 06:00N 37°37' W 019°41'1 0.3 21.6
2015-Jul-07 02:00N 37°36' W 019°41'2 0.7 21.8
2015-Jul-06 23:00N 37°35' W 019°39'1 0.5 21.8
2015-Jul-06 21:00N 37°35' W 019°38'3 0.6 21.9
2015-Jul-06 17:00N 37°38' W 019°39'2 0.6 22.1
2015-Jul-06 14:00N 37°38' W 019°41'4 0.4 21.9
2015-Jul-06 05:00N 37°36' W 019°45'2 0.4 21.2
2015-Jul-05 22:00N 37°36' W 019°41'1 0.8 21.3
2015-Jul-05 21:00N 37°36' W 019°41'0 0.3 21.5
2015-Jul-05 20:00N 37°36' W 019°42'1 0.7 21.6
2015-Jul-05 18:00N 37°38' W 019°42'0 0.0 21.9
2015-Jul-05 17:00N 37°38' W 019°42'1 0.7 21.7
2015-Jul-05 16:00N 37°38' W 019°43'3 0.3 22.0
2015-Jul-05 07:00N 37°35' W 019°44'1 0.8 20.8
2015-Jul-05 06:00N 37°35' W 019°43'1 0.3 20.9
2015-Jul-05 02:00N 37°37' W 019°43'1 0.1 21.1
2015-Jul-04 17:00N 37°37' W 019°42'0 0.4 21.5
2015-Jul-04 16:00N 37°37' W 019°42'3 0.7 21.5
2015-Jul-04 11:00N 37°36' W 019°38'1 0.2 20.8
2015-Jul-04 08:00N 37°36' W 019°37'3 0.4 20.5
2015-Jul-03 23:00N 37°38' W 019°34'1 0.6 20.6
2015-Jul-03 21:00N 37°39' W 019°35'0 0.0 20.8
2015-Jul-03 20:00N 37°39' W 019°35'0 0.1 20.9
2015-Jul-03 18:00N 37°39' W 019°34'0 0.2 20.9
2015-Jul-03 16:00N 37°39' W 019°35'2 0.8 20.8
2015-Jul-03 14:00N 37°38' W 019°33'0 0.0 20.7
2015-Jul-03 13:00N 37°38' W 019°33'2 0.4 20.5
2015-Jul-03 09:00N 37°39' W 019°33'0 0.0 20.3
2015-Jul-03 08:00N 37°39' W 019°33'1 0.4 20.3
2015-Jul-03 06:00N 37°40' W 019°34'4 0.5 20.3
2015-Jul-02 23:00N 37°39' W 019°39'0 0.0 20.6
2015-Jul-02 22:00N 37°39' W 019°39'1 0.5 20.6
2015-Jul-02 19:00N 37°38' W 019°41'4 1.4 20.7
2015-Jul-02 16:00N 37°36' W 019°45'3 0.7 20.8
2015-Jul-02 11:00N 37°33' W 019°46'3 0.4 20.5
2015-Jul-02 05:00N 37°31' W 019°45'2 0.2 20.3
2015-Jul-01 21:00N 37°29' W 019°44'   20.5

Dump ship's entire track history